Wetterdaten: Sonntag, 21.07.2013
Datum Zeit Temperatur Luftfeuchte Luftdruck Regen Wind Richtung Richtung Taupunkt Windchill Windben
21.07.2013 00:00 14,7 C 81 % 1023,2 hPa 0,0 l/m 0,0 km/h (0 Bft) S 180 11,5 C 14,2 C 0,0 km/h (0 Bft)
21.07.2013 00:05 14,8 C 82 % 1023,2 hPa 0,0 l/m 0,0 km/h (0 Bft) S 180 11,8 C 14,2 C 0,0 km/h (0 Bft)
21.07.2013 00:10 14,6 C 81 % 1023,2 hPa 0,0 l/m 0,0 km/h (0 Bft) SW 225 11,4 C 14,2 C 0,0 km/h (0 Bft)
21.07.2013 00:15 14,5 C 81 % 1023,2 hPa 0,0 l/m 0,0 km/h (0 Bft) O-SO 112 11,3 C 14,2 C 0,0 km/h (0 Bft)
21.07.2013 00:20 14,3 C 82 % 1023,2 hPa 0,0 l/m 0,0 km/h (0 Bft) W-SW 247 11,3 C 14,0 C 0,0 km/h (0 Bft)
21.07.2013 00:25 14,2 C 82 % 1023,4 hPa 0,0 l/m 0,0 km/h (0 Bft) W-SW 247 11,2 C 13,9 C 0,0 km/h (0 Bft)
21.07.2013 00:30 14,2 C 82 % 1023,4 hPa 0,0 l/m 0,0 km/h (0 Bft) W-SW 247 11,2 C 13,7 C 0,0 km/h (0 Bft)
21.07.2013 00:35 14,3 C 83 % 1023,4 hPa 0,0 l/m 0,0 km/h (0 Bft) O 90 11,5 C 13,7 C 0,0 km/h (0 Bft)
21.07.2013 00:40 14,3 C 83 % 1023,4 hPa 0,0 l/m 0,0 km/h (0 Bft) O-SO 112 11,5 C 13,7 C 0,0 km/h (0 Bft)
21.07.2013 00:45 14,0 C 83 % 1023,3 hPa 0,0 l/m 0,0 km/h (0 Bft) W-SW 247 11,2 C 13,7 C 0,0 km/h (0 Bft)
21.07.2013 00:50 13,8 C 83 % 1023,3 hPa 0,0 l/m 0,0 km/h (0 Bft) W-SW 247 11,0 C 13,6 C 0,0 km/h (0 Bft)
21.07.2013 00:55 13,7 C 83 % 1023,3 hPa 0,0 l/m 0,0 km/h (0 Bft) W-SW 247 10,9 C 13,4 C 0,0 km/h (0 Bft)
21.07.2013 01:00 13,9 C 84 % 1023,3 hPa 0,0 l/m 0,0 km/h (0 Bft) W-SW 247 11,2 C 13,3 C 0,0 km/h (0 Bft)
21.07.2013 01:05 13,7 C 84 % 1023,3 hPa 0,0 l/m 0,0 km/h (0 Bft) W-SW 247 11,0 C 13,3 C 0,0 km/h (0 Bft)
21.07.2013 01:10 13,6 C 84 % 1023,3 hPa 0,0 l/m 0,0 km/h (0 Bft) W-SW 247 10,9 C 13,2 C 0,0 km/h (0 Bft)
21.07.2013 01:15 13,7 C 85 % 1023,3 hPa 0,0 l/m 0,0 km/h (0 Bft) O-NO 67 11,2 C 13,1 C 0,0 km/h (0 Bft)
21.07.2013 01:20 13,8 C 85 % 1023,3 hPa 0,0 l/m 0,0 km/h (0 Bft) O-SO 112 11,3 C 13,1 C 0,0 km/h (0 Bft)
21.07.2013 01:25 13,7 C 84 % 1023,3 hPa 0,0 l/m 0,0 km/h (0 Bft) O 90 11,0 C 13,1 C 0,0 km/h (0 Bft)
21.07.2013 01:30 14,0 C 85 % 1023,3 hPa 0,0 l/m 0,0 km/h (0 Bft) SO 135 11,5 C 13,1 C 0,0 km/h (0 Bft)
21.07.2013 01:35 13,8 C 85 % 1023,3 hPa 0,0 l/m 0,0 km/h (0 Bft) O 90 11,3 C 13,1 C 0,0 km/h (0 Bft)
21.07.2013 01:40 14,0 C 84 % 1023,3 hPa 0,0 l/m 0,0 km/h (0 Bft) O-SO 112 11,3 C 13,1 C 0,0 km/h (0 Bft)
21.07.2013 01:45 13,8 C 85 % 1023,4 hPa 0,0 l/m 0,0 km/h (0 Bft) O-NO 67 11,3 C 13,0 C 0,0 km/h (0 Bft)
21.07.2013 01:50 13,3 C 84 % 1023,4 hPa 0,0 l/m 0,0 km/h (0 Bft) O 90 10,7 C 12,7 C 0,0 km/h (0 Bft)
21.07.2013 01:55 13,3 C 84 % 1023,4 hPa 0,0 l/m 0,0 km/h (0 Bft) W-SW 247 10,7 C 12,7 C 0,0 km/h (0 Bft)
21.07.2013 02:00 13,0 C 85 % 1023,4 hPa 0,0 l/m 0,0 km/h (0 Bft) W-SW 247 10,5 C 12,6 C 0,0 km/h (0 Bft)
21.07.2013 02:05 13,2 C 85 % 1023,3 hPa 0,0 l/m 0,0 km/h (0 Bft) NO 45 10,7 C 12,6 C 0,0 km/h (0 Bft)
21.07.2013 02:10 12,9 C 86 % 1023,3 hPa 0,0 l/m 0,0 km/h (0 Bft) N-NO 22 10,6 C 12,5 C 0,0 km/h (0 Bft)
21.07.2013 02:15 12,8 C 86 % 1023,3 hPa 0,0 l/m 0,0 km/h (0 Bft) NO 45 10,5 C 12,4 C 0,0 km/h (0 Bft)
21.07.2013 02:20 12,9 C 86 % 1023,3 hPa 0,0 l/m 0,0 km/h (0 Bft) N-NW 337 10,6 C 12,4 C 0,0 km/h (0 Bft)
21.07.2013 02:25 12,8 C 86 % 1023,4 hPa 0,0 l/m 0,0 km/h (0 Bft) N-NW 337 10,5 C 12,4 C 0,0 km/h (0 Bft)
21.07.2013 02:30 12,7 C 86 % 1023,4 hPa 0,0 l/m 0,0 km/h (0 Bft) N-NW 337 10,4 C 12,2 C 0,0 km/h (0 Bft)
21.07.2013 02:35 12,6 C 86 % 1023,4 hPa 0,0 l/m 0,0 km/h (0 Bft) N 360 10,3 C 12,2 C 0,0 km/h (0 Bft)
21.07.2013 02:40 12,8 C 87 % 1023,4 hPa 0,0 l/m 0,0 km/h (0 Bft) O 90 10,7 C 12,2 C 0,0 km/h (0 Bft)
21.07.2013 02:45 12,7 C 87 % 1023,1 hPa 0,0 l/m 0,0 km/h (0 Bft) O 90 10,6 C 12,2 C 0,0 km/h (0 Bft)
21.07.2013 02:50 12,7 C 87 % 1023,1 hPa 0,0 l/m 0,0 km/h (0 Bft) O 90 10,6 C 12,1 C 0,0 km/h (0 Bft)
21.07.2013 02:55 12,8 C 87 % 1023,1 hPa 0,0 l/m 0,0 km/h (0 Bft) O 90 10,7 C 12,0 C 0,0 km/h (0 Bft)
21.07.2013 03:00 12,5 C 87 % 1023,1 hPa 0,0 l/m 0,0 km/h (0 Bft) N 360 10,4 C 12,0 C 0,0 km/h (0 Bft)
21.07.2013 03:05 12,3 C 87 % 1023,2 hPa 0,0 l/m 0,0 km/h (0 Bft) O 90 10,2 C 11,9 C 0,0 km/h (0 Bft)
21.07.2013 03:10 12,3 C 87 % 1023,2 hPa 0,0 l/m 0,0 km/h (0 Bft) O 90 10,2 C 12,0 C 0,0 km/h (0 Bft)
21.07.2013 03:15 12,1 C 87 % 1023,2 hPa 0,0 l/m 0,0 km/h (0 Bft) O 90 10,0 C 11,9 C 0,0 km/h (0 Bft)
21.07.2013 03:20 12,0 C 87 % 1023,2 hPa 0,0 l/m 0,0 km/h (0 Bft) O-SO 112 9,9 C 11,7 C 0,0 km/h (0 Bft)
21.07.2013 03:25 12,0 C 87 % 1023,2 hPa 0,0 l/m 0,0 km/h (0 Bft) O-SO 112 9,9 C 11,7 C 0,0 km/h (0 Bft)
21.07.2013 03:30 12,1 C 87 % 1023,2 hPa 0,0 l/m 0,0 km/h (0 Bft) N-NW 337 10,0 C 11,6 C 0,0 km/h (0 Bft)
21.07.2013 03:35 12,4 C 88 % 1023,2 hPa 0,0 l/m 0,0 km/h (0 Bft) O 90 10,5 C 11,6 C 0,0 km/h (0 Bft)
21.07.2013 03:40 12,9 C 89 % 1023,2 hPa 0,0 l/m 0,0 km/h (0 Bft) O-NO 67 11,1 C 11,7 C 0,0 km/h (0 Bft)
21.07.2013 03:45 12,9 C 89 % 1023,1 hPa 0,0 l/m 0,0 km/h (0 Bft) S-SW 202 11,1 C 11,8 C 0,0 km/h (0 Bft)
21.07.2013 03:50 13,0 C 88 % 1023,1 hPa 0,0 l/m 0,0 km/h (0 Bft) O 90 11,1 C 12,1 C 0,0 km/h (0 Bft)
21.07.2013 03:55 13,1 C 88 % 1023,1 hPa 0,0 l/m 0,0 km/h (0 Bft) O-SO 112 11,2 C 12,2 C 0,0 km/h (0 Bft)
21.07.2013 04:00 13,2 C 88 % 1023,1 hPa 0,0 l/m 0,0 km/h (0 Bft) O 90 11,3 C 12,2 C 0,0 km/h (0 Bft)
21.07.2013 04:05 13,0 C 88 % 1022,9 hPa 0,0 l/m 0,0 km/h (0 Bft) O 90 11,1 C 12,3 C 0,0 km/h (0 Bft)
21.07.2013 04:10 13,0 C 88 % 1022,9 hPa 0,0 l/m 0,0 km/h (0 Bft) O 90 11,1 C 12,4 C 0,0 km/h (0 Bft)
21.07.2013 04:15 13,0 C 88 % 1022,9 hPa 0,0 l/m 0,0 km/h (0 Bft) O 90 11,1 C 12,4 C 0,0 km/h (0 Bft)
21.07.2013 04:20 12,7 C 88 % 1022,9 hPa 0,0 l/m 0,0 km/h (0 Bft) N 360 10,8 C 12,3 C 0,0 km/h (0 Bft)
21.07.2013 04:25 12,3 C 88 % 1023,1 hPa 0,0 l/m 0,0 km/h (0 Bft) O 90 10,4 C 12,1 C 0,0 km/h (0 Bft)
21.07.2013 04:30 12,0 C 88 % 1023,1 hPa 0,0 l/m 0,0 km/h (0 Bft) O 90 10,1 C 11,8 C 0,0 km/h (0 Bft)
21.07.2013 04:35 12,1 C 88 % 1023,1 hPa 0,0 l/m 0,0 km/h (0 Bft) NO 45 10,2 C 11,7 C 0,0 km/h (0 Bft)
21.07.2013 04:40 11,9 C 88 % 1023,1 hPa 0,0 l/m 0,0 km/h (0 Bft) O-NO 67 10,0 C 11,6 C 0,0 km/h (0 Bft)
21.07.2013 04:45 11,8 C 88 % 1022,9 hPa 0,0 l/m 0,0 km/h (0 Bft) O-SO 112 9,9 C 11,6 C 0,0 km/h (0 Bft)
21.07.2013 04:50 11,7 C 88 % 1022,9 hPa 0,0 l/m 0,0 km/h (0 Bft) W-SW 247 9,8 C 11,5 C 0,0 km/h (0 Bft)
21.07.2013 04:55 11,6 C 88 % 1022,9 hPa 0,0 l/m 0,0 km/h (0 Bft) W-SW 247 9,7 C 11,5 C 0,0 km/h (0 Bft)
21.07.2013 05:00 11,7 C 89 % 1022,9 hPa 0,0 l/m 0,0 km/h (0 Bft) W-SW 247 9,9 C 11,4 C 0,0 km/h (0 Bft)
21.07.2013 05:05 11,7 C 89 % 1023,2 hPa 0,0 l/m 0,0 km/h (0 Bft) O 90 9,9 C 11,4 C 0,0 km/h (0 Bft)
21.07.2013 05:10 12,1 C 90 % 1023,2 hPa 0,0 l/m 0,0 km/h (0 Bft) O 90 10,5 C 11,5 C 0,0 km/h (0 Bft)
21.07.2013 05:15 11,9 C 90 % 1023,2 hPa 0,0 l/m 0,0 km/h (0 Bft) SW 225 10,3 C 11,5 C 0,0 km/h (0 Bft)
21.07.2013 05:20 11,6 C 90 % 1023,2 hPa 0,0 l/m 0,0 km/h (0 Bft) NO 45 10,0 C 11,3 C 0,0 km/h (0 Bft)
21.07.2013 05:25 11,4 C 90 % 1023,2 hPa 0,0 l/m 0,0 km/h (0 Bft) NO 45 9,8 C 11,2 C 0,0 km/h (0 Bft)
21.07.2013 05:30 11,7 C 90 % 1023,2 hPa 0,0 l/m 0,0 km/h (0 Bft) NO 45 10,1 C 11,2 C 0,0 km/h (0 Bft)
21.07.2013 05:35 11,5 C 90 % 1023,2 hPa 0,0 l/m 0,0 km/h (0 Bft) O-SO 112 9,9 C 11,2 C 0,0 km/h (0 Bft)
21.07.2013 05:40 11,7 C 90 % 1023,2 hPa 0,0 l/m 0,0 km/h (0 Bft) O-SO 112 10,1 C 11,1 C 0,0 km/h (0 Bft)
21.07.2013 05:45 11,8 C 91 % 1023,3 hPa 0,0 l/m 0,0 km/h (0 Bft) O-SO 112 10,4 C 11,3 C 0,0 km/h (0 Bft)
21.07.2013 05:50 12,0 C 91 % 1023,3 hPa 0,0 l/m 0,0 km/h (0 Bft) O 90 10,6 C 11,6 C 0,0 km/h (0 Bft)
21.07.2013 05:55 11,6 C 91 % 1023,3 hPa 0,0 l/m 0,0 km/h (0 Bft) O 90 10,2 C 11,5 C 0,0 km/h (0 Bft)
21.07.2013 06:00 11,5 C 91 % 1023,3 hPa 0,0 l/m 0,0 km/h (0 Bft) W-NW 292 10,1 C 11,5 C 0,0 km/h (0 Bft)
21.07.2013 06:05 11,1 C 90 % 1023,4 hPa 0,0 l/m 0,0 km/h (0 Bft) N-NW 337 9,5 C 11,2 C 0,0 km/h (0 Bft)
21.07.2013 06:10 11,2 C 90 % 1023,4 hPa 0,0 l/m 0,0 km/h (0 Bft) NO 45 9,6 C 11,2 C 0,0 km/h (0 Bft)
21.07.2013 06:15 11,5 C 90 % 1023,4 hPa 0,0 l/m 0,0 km/h (0 Bft) N-NO 22 9,9 C 11,5 C 0,0 km/h (0 Bft)
21.07.2013 06:20 11,6 C 90 % 1023,4 hPa 0,0 l/m 0,0 km/h (0 Bft) O-SO 112 10,0 C 12,2 C 0,0 km/h (0 Bft)
21.07.2013 06:25 12,1 C 89 % 1023,9 hPa 0,0 l/m 0,0 km/h (0 Bft) NW 315 10,3 C 12,3 C 0,0 km/h (0 Bft)
21.07.2013 06:30 13,5 C 89 % 1023,9 hPa 0,0 l/m 0,0 km/h (0 Bft) O-NO 67 11,7 C 12,0 C 0,0 km/h (0 Bft)
21.07.2013 06:35 14,0 C 88 % 1023,9 hPa 0,0 l/m 0,0 km/h (0 Bft) O-NO 67 12,0 C 11,9 C 0,0 km/h (0 Bft)
21.07.2013 06:40 13,2 C 88 % 1023,9 hPa 0,0 l/m 0,0 km/h (0 Bft) O-NO 67 11,3 C 12,8 C 0,0 km/h (0 Bft)
21.07.2013 06:45 13,0 C 88 % 1023,5 hPa 0,0 l/m 0,0 km/h (0 Bft) O-NO 67 11,1 C 13,7 C 0,0 km/h (0 Bft)
21.07.2013 06:50 14,9 C 87 % 1023,5 hPa 0,0 l/m 0,0 km/h (0 Bft) O 90 12,8 C 14,7 C 0,0 km/h (0 Bft)
21.07.2013 06:55 15,6 C 84 % 1023,5 hPa 0,0 l/m 0,0 km/h (0 Bft) N 360 12,9 C 15,4 C 0,0 km/h (0 Bft)
21.07.2013 07:00 16,6 C 82 % 1023,5 hPa 0,0 l/m 0,0 km/h (0 Bft) NO 45 13,5 C 16,3 C 0,0 km/h (0 Bft)
21.07.2013 07:05 17,1 C 80 % 1023,3 hPa 0,0 l/m 0,0 km/h (0 Bft) NO 45 13,6 C 17,0 C 0,0 km/h (0 Bft)
21.07.2013 07:10 18,0 C 76 % 1023,3 hPa 0,0 l/m 0,0 km/h (0 Bft) N 360 13,7 C 18,2 C 0,0 km/h (0 Bft)
21.07.2013 07:15 18,7 C 76 % 1023,3 hPa 0,0 l/m 0,0 km/h (0 Bft) W 270 14,4 C 18,7 C 0,0 km/h (0 Bft)
21.07.2013 07:20 19,7 C 74 % 1023,3 hPa 0,0 l/m 0,0 km/h (0 Bft) W 270 14,9 C 19,4 C 0,0 km/h (0 Bft)
21.07.2013 07:25 19,7 C 70 % 1023,6 hPa 0,0 l/m 0,0 km/h (0 Bft) W 270 14,1 C 19,8 C 0,0 km/h (0 Bft)
21.07.2013 07:30 19,7 C 68 % 1023,6 hPa 0,0 l/m 0,0 km/h (0 Bft) W-SW 247 13,6 C 20,5 C 0,0 km/h (0 Bft)
21.07.2013 07:35 20,9 C 66 % 1023,6 hPa 0,0 l/m 0,0 km/h (0 Bft) W-SW 247 14,3 C 21,0 C 0,0 km/h (0 Bft)
21.07.2013 07:40 20,4 C 65 % 1023,6 hPa 0,0 l/m 0,0 km/h (0 Bft) N-NO 22 13,6 C 21,7 C 0,0 km/h (0 Bft)
21.07.2013 07:45 21,4 C 63 % 1023,6 hPa 0,0 l/m 0,0 km/h (0 Bft) W-NW 292 14,1 C 22,2 C 0,0 km/h (0 Bft)
21.07.2013 07:50 22,6 C 65 % 1023,6 hPa 0,0 l/m 0,0 km/h (0 Bft) W-SW 247 15,7 C 22,9 C 0,0 km/h (0 Bft)
21.07.2013 07:55 23,0 C 59 % 1023,6 hPa 0,0 l/m 0,0 km/h (0 Bft) W-SW 247 14,5 C 23,4 C 0,0 km/h (0 Bft)
21.07.2013 08:00 23,4 C 61 % 1023,6 hPa 0,0 l/m 0,0 km/h (0 Bft) N-NO 22 15,4 C 24,0 C 0,0 km/h (0 Bft)
21.07.2013 08:05 23,4 C 59 % 1023,8 hPa 0,0 l/m 0,0 km/h (0 Bft) W-NW 292 14,9 C 24,6 C 0,0 km/h (0 Bft)
21.07.2013 08:10 23,3 C 58 % 1023,8 hPa 0,0 l/m 0,0 km/h (0 Bft) W-NW 292 14,6 C 24,6 C 0,0 km/h (0 Bft)
21.07.2013 08:15 23,5 C 57 % 1023,8 hPa 0,0 l/m 0,0 km/h (0 Bft) W 270 14,5 C 24,1 C 0,0 km/h (0 Bft)
21.07.2013 08:20 24,0 C 56 % 1023,8 hPa 0,0 l/m 0,0 km/h (0 Bft) N-NW 337 14,7 C 23,9 C 0,0 km/h (0 Bft)
21.07.2013 08:25 24,9 C 56 % 1023,8 hPa 0,0 l/m 0,0 km/h (0 Bft) W-SW 247 15,5 C 23,9 C 0,0 km/h (0 Bft)
21.07.2013 08:30 24,2 C 54 % 1023,8 hPa 0,0 l/m 0,0 km/h (0 Bft) W-NW 292 14,3 C 23,7 C 0,0 km/h (0 Bft)
21.07.2013 08:35 24,7 C 54 % 1023,8 hPa 0,0 l/m 0,0 km/h (0 Bft) N-NW 337 14,8 C 23,9 C 0,0 km/h (0 Bft)
21.07.2013 08:40 25,0 C 54 % 1023,8 hPa 0,0 l/m 0,0 km/h (0 Bft) W-NW 292 15,0 C 23,9 C 0,0 km/h (0 Bft)
21.07.2013 08:45 25,1 C 53 % 1023,8 hPa 0,0 l/m 0,0 km/h (0 Bft) O-NO 67 14,8 C 24,1 C 0,0 km/h (0 Bft)
21.07.2013 08:50 25,2 C 54 % 1023,8 hPa 0,0 l/m 0,0 km/h (0 Bft) W-NW 292 15,2 C 24,7 C 0,0 km/h (0 Bft)
21.07.2013 08:55 24,8 C 53 % 1023,8 hPa 0,0 l/m 0,0 km/h (0 Bft) W 270 14,6 C 24,6 C 0,0 km/h (0 Bft)
21.07.2013 09:00 24,6 C 51 % 1023,8 hPa 0,0 l/m 0,0 km/h (0 Bft) N-NW 337 13,8 C 24,4 C 0,0 km/h (0 Bft)
21.07.2013 09:05 24,9 C 52 % 1023,9 hPa 0,0 l/m 0,0 km/h (0 Bft) NW 315 14,4 C 24,7 C 0,0 km/h (0 Bft)
21.07.2013 09:10 25,9 C 49 % 1023,9 hPa 0,0 l/m 0,0 km/h (0 Bft) N 360 14,4 C 25,5 C 0,0 km/h (0 Bft)
21.07.2013 09:15 25,9 C 51 % 1023,9 hPa 0,0 l/m 0,0 km/h (0 Bft) O-NO 67 15,0 C 25,4 C 0,0 km/h (0 Bft)
21.07.2013 09:20 26,1 C 50 % 1023,9 hPa 0,0 l/m 0,0 km/h (0 Bft) W-SW 247 14,8 C 25,1 C 0,0 km/h (0 Bft)
21.07.2013 09:25 26,0 C 49 % 1023,9 hPa 0,0 l/m 0,0 km/h (0 Bft) W-NW 292 14,4 C 25,1 C 0,0 km/h (0 Bft)
21.07.2013 09:30 26,2 C 49 % 1023,9 hPa 0,0 l/m 0,0 km/h (0 Bft) N 360 14,6 C 25,1 C 0,0 km/h (0 Bft)
21.07.2013 09:35 26,0 C 50 % 1023,9 hPa 0,0 l/m 0,0 km/h (0 Bft) N 360 14,8 C 25,5 C 0,0 km/h (0 Bft)
21.07.2013 09:40 25,6 C 49 % 1023,9 hPa 0,0 l/m 0,0 km/h (0 Bft) NO 45 14,1 C 25,7 C 0,0 km/h (0 Bft)
21.07.2013 09:45 25,4 C 50 % 1023,9 hPa 0,0 l/m 0,0 km/h (0 Bft) W 270 14,2 C 25,8 C 0,0 km/h (0 Bft)
21.07.2013 09:50 25,7 C 51 % 1023,9 hPa 0,0 l/m 0,0 km/h (0 Bft) W-NW 292 14,8 C 25,3 C 0,0 km/h (0 Bft)
21.07.2013 09:55 25,6 C 49 % 1023,9 hPa 0,0 l/m 0,5 km/h (0 Bft) W-NW 292 14,1 C 25,3 C 5,6 km/h (1 Bft)
21.07.2013 10:00 25,4 C 49 % 1023,9 hPa 0,0 l/m 2,9 km/h (1 Bft) N-NW 337 13,9 C 25,6 C 6,4 km/h (2 Bft)
21.07.2013 10:05 25,1 C 49 % 1024,0 hPa 0,0 l/m 4,2 km/h (1 Bft) W-SW 247 13,6 C 25,5 C 4,5 km/h (1 Bft)
21.07.2013 10:10 25,1 C 49 % 1024,0 hPa 0,0 l/m 4,5 km/h (1 Bft) N-NW 337 13,6 C 25,7 C 4,0 km/h (1 Bft)
21.07.2013 10:15 25,3 C 50 % 1024,0 hPa 0,0 l/m 5,0 km/h (1 Bft) NW 315 14,1 C 25,6 C 5,0 km/h (1 Bft)
21.07.2013 10:20 25,8 C 48 % 1024,0 hPa 0,0 l/m 4,8 km/h (1 Bft) W 270 13,9 C 25,7 C 9,8 km/h (2 Bft)
21.07.2013 10:25 25,3 C 48 % 1024,1 hPa 0,0 l/m 5,0 km/h (1 Bft) W-NW 292 13,5 C 25,6 C 6,0 km/h (2 Bft)
21.07.2013 10:30 26,1 C 48 % 1024,1 hPa 0,0 l/m 4,8 km/h (1 Bft) N 360 14,2 C 25,9 C 6,9 km/h (2 Bft)
21.07.2013 10:35 25,9 C 48 % 1024,1 hPa 0,0 l/m 4,7 km/h (1 Bft) NW 315 14,0 C 26,0 C 6,4 km/h (2 Bft)
21.07.2013 10:40 26,0 C 47 % 1024,1 hPa 0,0 l/m 5,6 km/h (1 Bft) W 270 13,8 C 25,7 C 10,0 km/h (2 Bft)
21.07.2013 10:45 25,5 C 48 % 1024,2 hPa 0,0 l/m 5,3 km/h (1 Bft) NO 45 13,7 C 25,8 C 5,5 km/h (1 Bft)
21.07.2013 10:50 25,7 C 48 % 1024,2 hPa 0,0 l/m 4,0 km/h (1 Bft) SO 135 13,9 C 26,6 C 4,5 km/h (1 Bft)
21.07.2013 10:55 26,0 C 46 % 1024,2 hPa 0,0 l/m 3,9 km/h (1 Bft) W-NW 292 13,5 C 26,9 C 11,4 km/h (2 Bft)
21.07.2013 11:00 25,6 C 47 % 1024,2 hPa 0,0 l/m 4,8 km/h (1 Bft) NW 315 13,4 C 26,7 C 9,8 km/h (2 Bft)
21.07.2013 11:05 26,5 C 45 % 1024,3 hPa 0,0 l/m 5,3 km/h (1 Bft) N-NW 337 13,6 C 26,7 C 5,5 km/h (1 Bft)
21.07.2013 11:10 26,5 C 45 % 1024,3 hPa 0,0 l/m 5,1 km/h (1 Bft) W-NW 292 13,6 C 26,7 C 6,4 km/h (2 Bft)
21.07.2013 11:15 26,2 C 44 % 1024,3 hPa 0,0 l/m 5,5 km/h (1 Bft) NO 45 13,0 C 26,7 C 11,3 km/h (2 Bft)
21.07.2013 11:20 26,2 C 44 % 1024,3 hPa 0,0 l/m 5,8 km/h (2 Bft) W-NW 292 13,0 C 26,6 C 7,4 km/h (2 Bft)
21.07.2013 11:25 26,3 C 44 % 1024,3 hPa 0,0 l/m 5,5 km/h (1 Bft) NW 315 13,1 C 26,6 C 8,5 km/h (2 Bft)
21.07.2013 11:30 26,6 C 45 % 1024,3 hPa 0,0 l/m 4,8 km/h (1 Bft) N-NO 22 13,7 C 27,1 C 6,4 km/h (2 Bft)
21.07.2013 11:35 26,8 C 45 % 1024,3 hPa 0,0 l/m 4,5 km/h (1 Bft) W-NW 292 13,9 C 27,3 C 6,1 km/h (2 Bft)
21.07.2013 11:40 27,4 C 46 % 1024,3 hPa 0,0 l/m 5,0 km/h (1 Bft) N-NW 337 14,7 C 27,2 C 5,0 km/h (1 Bft)
21.07.2013 11:45 27,5 C 46 % 1024,4 hPa 0,0 l/m 4,8 km/h (1 Bft) N-NW 337 14,8 C 27,5 C 8,0 km/h (2 Bft)
21.07.2013 11:50 27,1 C 44 % 1024,4 hPa 0,0 l/m 4,5 km/h (1 Bft) W 270 13,8 C 27,6 C 3,2 km/h (1 Bft)
21.07.2013 11:55 26,8 C 46 % 1024,4 hPa 0,0 l/m 5,1 km/h (1 Bft) N-NO 22 14,2 C 27,6 C 13,2 km/h (3 Bft)
21.07.2013 12:00 27,2 C 45 % 1024,4 hPa 0,0 l/m 5,5 km/h (1 Bft) W-NW 292 14,2 C 27,2 C 5,5 km/h (1 Bft)
21.07.2013 12:05 27,1 C 45 % 1024,6 hPa 0,0 l/m 5,5 km/h (1 Bft) N-NW 337 14,1 C 27,2 C 6,4 km/h (2 Bft)
21.07.2013 12:10 26,8 C 46 % 1024,6 hPa 0,0 l/m 6,0 km/h (2 Bft) W-NW 292 14,2 C 27,2 C 8,5 km/h (2 Bft)
21.07.2013 12:15 27,4 C 45 % 1024,6 hPa 0,0 l/m 6,0 km/h (2 Bft) N-NW 337 14,4 C 27,1 C 3,4 km/h (1 Bft)
21.07.2013 12:20 26,6 C 48 % 1024,6 hPa 0,0 l/m 5,5 km/h (1 Bft) N-NW 337 14,7 C 27,6 C 17,1 km/h (3 Bft)
21.07.2013 12:25 27,2 C 46 % 1024,6 hPa 0,0 l/m 5,1 km/h (1 Bft) W-NW 292 14,6 C 27,6 C 4,3 km/h (1 Bft)
21.07.2013 12:30 28,1 C 45 % 1024,6 hPa 0,0 l/m 4,8 km/h (1 Bft) NW 315 15,0 C 28,0 C 8,5 km/h (2 Bft)
21.07.2013 12:35 27,4 C 46 % 1024,6 hPa 0,0 l/m 4,5 km/h (1 Bft) N 360 14,7 C 28,0 C 3,1 km/h (1 Bft)
21.07.2013 12:40 27,4 C 46 % 1024,6 hPa 0,0 l/m 5,3 km/h (1 Bft) W-SW 247 14,7 C 28,0 C 2,7 km/h (1 Bft)
21.07.2013 12:45 27,6 C 45 % 1024,6 hPa 0,0 l/m 4,2 km/h (1 Bft) NO 45 14,6 C 28,3 C 3,4 km/h (1 Bft)
21.07.2013 12:50 27,6 C 45 % 1024,6 hPa 0,0 l/m 4,7 km/h (1 Bft) W-SW 247 14,6 C 28,4 C 7,2 km/h (2 Bft)
21.07.2013 12:55 27,7 C 44 % 1024,6 hPa 0,0 l/m 5,5 km/h (1 Bft) W 270 14,3 C 28,2 C 6,8 km/h (2 Bft)
21.07.2013 13:00 27,3 C 46 % 1024,6 hPa 0,0 l/m 5,8 km/h (2 Bft) O-SO 112 14,6 C 28,2 C 10,1 km/h (2 Bft)
21.07.2013 13:05 27,5 C 44 % 1024,6 hPa 0,0 l/m 5,8 km/h (2 Bft) NW 315 14,1 C 28,2 C 5,8 km/h (2 Bft)
21.07.2013 13:10 26,9 C 45 % 1024,6 hPa 0,0 l/m 5,8 km/h (2 Bft) W-NW 292 13,9 C 28,1 C 3,7 km/h (1 Bft)
21.07.2013 13:15 27,5 C 46 % 1024,6 hPa 0,0 l/m 5,3 km/h (1 Bft) W-NW 292 14,8 C 28,4 C 8,5 km/h (2 Bft)
21.07.2013 13:20 28,0 C 44 % 1024,6 hPa 0,0 l/m 4,3 km/h (1 Bft) N-NW 337 14,6 C 28,6 C 12,2 km/h (2 Bft)
21.07.2013 13:25 27,0 C 43 % 1024,7 hPa 0,0 l/m 5,3 km/h (1 Bft) NO 45 13,3 C 28,6 C 9,8 km/h (2 Bft)
21.07.2013 13:30 27,7 C 43 % 1024,7 hPa 0,0 l/m 5,1 km/h (1 Bft) N-NW 337 14,0 C 28,7 C 6,4 km/h (2 Bft)
21.07.2013 13:35 27,7 C 43 % 1024,7 hPa 0,0 l/m 4,5 km/h (1 Bft) W-NW 292 14,0 C 28,9 C 6,0 km/h (2 Bft)
21.07.2013 13:40 27,5 C 41 % 1024,7 hPa 0,0 l/m 5,6 km/h (1 Bft) W 270 13,1 C 28,9 C 9,0 km/h (2 Bft)
21.07.2013 13:45 27,3 C 42 % 1024,5 hPa 0,0 l/m 6,0 km/h (2 Bft) W-NW 292 13,2 C 29,0 C 4,8 km/h (1 Bft)
21.07.2013 13:50 27,8 C 41 % 1024,5 hPa 0,0 l/m 5,3 km/h (1 Bft) N-NW 337 13,3 C 29,2 C 6,9 km/h (2 Bft)
21.07.2013 13:55 27,7 C 42 % 1024,5 hPa 0,0 l/m 5,3 km/h (1 Bft) N 360 13,6 C 29,0 C 3,7 km/h (1 Bft)
21.07.2013 14:00 27,8 C 40 % 1024,5 hPa 0,0 l/m 5,0 km/h (1 Bft) SO 135 12,9 C 29,5 C 5,0 km/h (1 Bft)
21.07.2013 14:05 27,7 C 41 % 1024,5 hPa 0,0 l/m 4,8 km/h (1 Bft) NW 315 13,2 C 29,5 C 7,1 km/h (2 Bft)
21.07.2013 14:10 27,4 C 41 % 1024,5 hPa 0,0 l/m 6,1 km/h (2 Bft) N-NW 337 13,0 C 29,1 C 11,4 km/h (2 Bft)
21.07.2013 14:15 28,0 C 41 % 1024,5 hPa 0,0 l/m 6,1 km/h (2 Bft) W 270 13,5 C 29,0 C 4,3 km/h (1 Bft)
21.07.2013 14:20 28,1 C 39 % 1024,5 hPa 0,0 l/m 5,6 km/h (1 Bft) S 180 12,8 C 29,2 C 3,5 km/h (1 Bft)
21.07.2013 14:25 28,1 C 42 % 1024,4 hPa 0,0 l/m 4,8 km/h (1 Bft) N 360 14,0 C 29,5 C 2,1 km/h (1 Bft)
21.07.2013 14:30 27,8 C 40 % 1024,4 hPa 0,0 l/m 5,5 km/h (1 Bft) N-NO 22 12,9 C 29,4 C 4,5 km/h (1 Bft)
21.07.2013 14:35 27,9 C 40 % 1024,4 hPa 0,0 l/m 5,6 km/h (1 Bft) W 270 13,0 C 29,5 C 4,8 km/h (1 Bft)
21.07.2013 14:40 28,4 C 39 % 1024,4 hPa 0,0 l/m 4,8 km/h (1 Bft) N 360 13,1 C 29,9 C 14,3 km/h (3 Bft)
21.07.2013 14:45 28,2 C 38 % 1024,4 hPa 0,0 l/m 5,6 km/h (1 Bft) S 180 12,5 C 29,6 C 5,1 km/h (1 Bft)
21.07.2013 14:50 28,2 C 38 % 1024,4 hPa 0,0 l/m 6,0 km/h (2 Bft) N 360 12,5 C 29,7 C 10,5 km/h (2 Bft)
21.07.2013 14:55 28,2 C 39 % 1024,4 hPa 0,0 l/m 5,5 km/h (1 Bft) N-NW 337 12,9 C 29,5 C 3,9 km/h (1 Bft)
21.07.2013 15:00 28,1 C 38 % 1024,4 hPa 0,0 l/m 6,0 km/h (2 Bft) N-NW 337 12,4 C 29,6 C 5,5 km/h (1 Bft)
21.07.2013 15:05 28,1 C 38 % 1024,3 hPa 0,0 l/m 5,0 km/h (1 Bft) SO 135 12,4 C 29,8 C 5,1 km/h (1 Bft)
21.07.2013 15:10 28,0 C 37 % 1024,3 hPa 0,0 l/m 4,8 km/h (1 Bft) S 180 11,9 C 29,9 C 2,9 km/h (1 Bft)
21.07.2013 15:15 28,3 C 38 % 1024,3 hPa 0,0 l/m 5,0 km/h (1 Bft) NO 45 12,6 C 30,0 C 5,5 km/h (1 Bft)
21.07.2013 15:20 28,5 C 36 % 1024,3 hPa 0,0 l/m 4,8 km/h (1 Bft) W-SW 247 12,0 C 30,2 C 11,7 km/h (2 Bft)
21.07.2013 15:25 28,2 C 37 % 1024,4 hPa 0,0 l/m 4,2 km/h (1 Bft) W-NW 292 12,1 C 30,5 C 3,7 km/h (1 Bft)
21.07.2013 15:30 28,2 C 37 % 1024,4 hPa 0,0 l/m 4,8 km/h (1 Bft) N 360 12,1 C 30,5 C 9,7 km/h (2 Bft)
21.07.2013 15:35 28,3 C 37 % 1024,4 hPa 0,0 l/m 6,0 km/h (2 Bft) W 270 12,2 C 30,2 C 5,8 km/h (2 Bft)
21.07.2013 15:40 28,0 C 38 % 1024,4 hPa 0,0 l/m 5,8 km/h (2 Bft) W-NW 292 12,3 C 30,2 C 6,1 km/h (2 Bft)
21.07.2013 15:45 28,1 C 36 % 1024,4 hPa 0,0 l/m 5,5 km/h (1 Bft) N 360 11,6 C 30,4 C 6,9 km/h (2 Bft)
21.07.2013 15:50 28,1 C 36 % 1024,4 hPa 0,0 l/m 4,3 km/h (1 Bft) N 360 11,6 C 30,6 C 7,9 km/h (2 Bft)
21.07.2013 15:55 28,3 C 35 % 1024,4 hPa 0,0 l/m 4,2 km/h (1 Bft) N 360 11,4 C 31,1 C 4,5 km/h (1 Bft)
21.07.2013 16:00 28,3 C 36 % 1024,4 hPa 0,0 l/m 4,0 km/h (1 Bft) N-NO 22 11,8 C 31,3 C 2,3 km/h (1 Bft)
21.07.2013 16:05 28,1 C 36 % 1024,2 hPa 0,0 l/m 3,9 km/h (1 Bft) W 270 11,6 C 31,4 C 3,1 km/h (1 Bft)
21.07.2013 16:10 28,4 C 36 % 1024,2 hPa 0,0 l/m 4,8 km/h (1 Bft) W 270 11,9 C 30,9 C 7,1 km/h (2 Bft)
21.07.2013 16:15 28,7 C 35 % 1024,2 hPa 0,0 l/m 4,8 km/h (1 Bft) W-NW 292 11,7 C 30,8 C 2,9 km/h (1 Bft)
21.07.2013 16:20 28,2 C 36 % 1024,2 hPa 0,0 l/m 4,3 km/h (1 Bft) N-NW 337 11,7 C 31,1 C 3,7 km/h (1 Bft)
21.07.2013 16:25 28,2 C 36 % 1024,0 hPa 0,0 l/m 4,2 km/h (1 Bft) W-SW 247 11,7 C 31,2 C 5,1 km/h (1 Bft)
21.07.2013 16:30 28,0 C 36 % 1024,0 hPa 0,0 l/m 4,5 km/h (1 Bft) N 360 11,5 C 31,1 C 8,4 km/h (2 Bft)
21.07.2013 16:35 27,7 C 37 % 1024,0 hPa 0,0 l/m 4,2 km/h (1 Bft) O-SO 112 11,7 C 31,5 C 4,8 km/h (1 Bft)
21.07.2013 16:40 27,6 C 37 % 1024,0 hPa 0,0 l/m 5,1 km/h (1 Bft) NW 315 11,6 C 31,2 C 10,9 km/h (2 Bft)
21.07.2013 16:45 27,3 C 36 % 1024,0 hPa 0,0 l/m 6,3 km/h (2 Bft) W 270 10,9 C 30,8 C 5,3 km/h (1 Bft)
21.07.2013 16:50 26,9 C 38 % 1024,0 hPa 0,0 l/m 4,8 km/h (1 Bft) W 270 11,4 C 31,3 C 6,3 km/h (2 Bft)
21.07.2013 16:55 26,8 C 38 % 1024,0 hPa 0,0 l/m 2,6 km/h (1 Bft) O-SO 112 11,3 C 31,5 C 0,0 km/h (0 Bft)
21.07.2013 17:00 26,5 C 39 % 1024,0 hPa 0,0 l/m 3,4 km/h (1 Bft) W-NW 292 11,4 C 32,0 C 8,2 km/h (2 Bft)
21.07.2013 17:05 26,5 C 41 % 1024,1 hPa 0,0 l/m 3,5 km/h (1 Bft) N-NW 337 12,2 C 31,9 C 4,0 km/h (1 Bft)
21.07.2013 17:10 26,3 C 40 % 1024,1 hPa 0,0 l/m 3,9 km/h (1 Bft) N-NW 337 11,6 C 32,0 C 5,0 km/h (1 Bft)
21.07.2013 17:15 26,0 C 40 % 1024,1 hPa 0,0 l/m 4,7 km/h (1 Bft) N-NW 337 11,3 C 31,8 C 5,1 km/h (1 Bft)
21.07.2013 17:20 26,0 C 40 % 1024,1 hPa 0,0 l/m 5,5 km/h (1 Bft) NO 45 11,3 C 31,3 C 6,6 km/h (2 Bft)
21.07.2013 17:25 25,9 C 42 % 1023,9 hPa 0,0 l/m 4,3 km/h (1 Bft) N-NW 337 12,0 C 31,4 C 2,6 km/h (1 Bft)
21.07.2013 17:30 25,8 C 43 % 1023,9 hPa 0,0 l/m 3,5 km/h (1 Bft) W-NW 292 12,3 C 31,9 C 4,3 km/h (1 Bft)
21.07.2013 17:35 25,6 C 42 % 1023,9 hPa 0,0 l/m 3,5 km/h (1 Bft) W 270 11,7 C 32,1 C 2,7 km/h (1 Bft)
21.07.2013 17:40 25,8 C 44 % 1023,9 hPa 0,0 l/m 3,1 km/h (1 Bft) N 360 12,6 C 32,6 C 5,5 km/h (1 Bft)
21.07.2013 17:45 25,8 C 43 % 1023,7 hPa 0,0 l/m 3,2 km/h (1 Bft) N-NW 337 12,3 C 32,6 C 8,7 km/h (2 Bft)
21.07.2013 17:50 25,6 C 45 % 1023,7 hPa 0,0 l/m 5,0 km/h (1 Bft) W-NW 292 12,8 C 32,0 C 5,6 km/h (1 Bft)
21.07.2013 17:55 25,6 C 42 % 1023,7 hPa 0,0 l/m 5,1 km/h (1 Bft) N 360 11,7 C 31,6 C 3,1 km/h (1 Bft)
21.07.2013 18:00 25,6 C 44 % 1023,7 hPa 0,0 l/m 3,7 km/h (1 Bft) W-NW 292 12,4 C 31,8 C 6,0 km/h (2 Bft)
21.07.2013 18:05 25,6 C 43 % 1023,8 hPa 0,0 l/m 2,9 km/h (1 Bft) NO 45 12,1 C 32,0 C 1,8 km/h (1 Bft)
21.07.2013 18:10 25,5 C 43 % 1023,8 hPa 0,0 l/m 2,9 km/h (1 Bft) W 270 12,0 C 32,5 C 7,7 km/h (2 Bft)
21.07.2013 18:15 25,7 C 43 % 1023,8 hPa 0,0 l/m 3,2 km/h (1 Bft) W 270 12,2 C 32,1 C 5,1 km/h (1 Bft)
21.07.2013 18:20 25,5 C 42 % 1023,8 hPa 0,0 l/m 4,0 km/h (1 Bft) N-NW 337 11,6 C 31,8 C 5,6 km/h (1 Bft)
21.07.2013 18:25 25,6 C 44 % 1023,6 hPa 0,0 l/m 3,4 km/h (1 Bft) O 90 12,4 C 32,1 C 3,5 km/h (1 Bft)
21.07.2013 18:30 25,8 C 44 % 1023,6 hPa 0,0 l/m 3,4 km/h (1 Bft) N-NW 337 12,6 C 31,9 C 3,4 km/h (1 Bft)
21.07.2013 18:35 25,6 C 43 % 1023,6 hPa 0,0 l/m 3,4 km/h (1 Bft) NW 315 12,1 C 31,9 C 1,8 km/h (1 Bft)
21.07.2013 18:40 25,6 C 45 % 1023,6 hPa 0,0 l/m 3,5 km/h (1 Bft) W-SW 247 12,8 C 31,7 C 7,9 km/h (2 Bft)
21.07.2013 18:45 25,6 C 44 % 1023,7 hPa 0,0 l/m 3,9 km/h (1 Bft) W-NW 292 12,4 C 31,3 C 3,1 km/h (1 Bft)
21.07.2013 18:50 25,5 C 45 % 1023,7 hPa 0,0 l/m 3,4 km/h (1 Bft) N 360 12,7 C 31,6 C 6,9 km/h (2 Bft)
21.07.2013 18:55 25,4 C 44 % 1023,7 hPa 0,0 l/m 3,1 km/h (1 Bft) NO 45 12,2 C 31,4 C 3,4 km/h (1 Bft)
21.07.2013 19:00 25,1 C 44 % 1023,7 hPa 0,0 l/m 3,7 km/h (1 Bft) W-NW 292 12,0 C 31,5 C 3,4 km/h (1 Bft)
21.07.2013 19:05 25,0 C 46 % 1023,6 hPa 0,0 l/m 3,4 km/h (1 Bft) W-NW 292 12,6 C 31,2 C 2,6 km/h (1 Bft)
21.07.2013 19:10 25,0 C 44 % 1023,6 hPa 0,0 l/m 4,3 km/h (1 Bft) S 180 11,9 C 30,7 C 2,6 km/h (1 Bft)
21.07.2013 19:15 24,9 C 46 % 1023,6 hPa 0,0 l/m 3,7 km/h (1 Bft) O 90 12,5 C 30,7 C 1,6 km/h (1 Bft)
21.07.2013 19:20 24,7 C 47 % 1023,6 hPa 0,0 l/m 2,6 km/h (1 Bft) N 360 12,6 C 30,8 C 3,9 km/h (1 Bft)
21.07.2013 19:25 24,7 C 46 % 1023,4 hPa 0,0 l/m 3,1 km/h (1 Bft) N 360 12,3 C 30,7 C 7,1 km/h (2 Bft)
21.07.2013 19:30 24,5 C 47 % 1023,4 hPa 0,0 l/m 4,0 km/h (1 Bft) NO 45 12,4 C 30,2 C 3,4 km/h (1 Bft)
21.07.2013 19:35 24,4 C 48 % 1023,4 hPa 0,0 l/m 3,7 km/h (1 Bft) N-NW 337 12,7 C 29,9 C 3,4 km/h (1 Bft)
21.07.2013 19:40 24,3 C 48 % 1023,4 hPa 0,0 l/m 3,1 km/h (1 Bft) W 270 12,6 C 29,8 C 3,2 km/h (1 Bft)
21.07.2013 19:45 24,3 C 47 % 1023,6 hPa 0,0 l/m 2,3 km/h (1 Bft) NO 45 12,3 C 29,8 C 2,4 km/h (1 Bft)
21.07.2013 19:50 24,1 C 48 % 1023,6 hPa 0,0 l/m 1,9 km/h (1 Bft) N-NW 337 12,4 C 29,8 C 3,4 km/h (1 Bft)
21.07.2013 19:55 24,0 C 48 % 1023,6 hPa 0,0 l/m 2,6 km/h (1 Bft) N-NW 337 12,3 C 29,6 C 4,2 km/h (1 Bft)
21.07.2013 20:00 24,0 C 48 % 1023,6 hPa 0,0 l/m 3,4 km/h (1 Bft) N-NO 22 12,3 C 29,0 C 6,3 km/h (2 Bft)
21.07.2013 20:05 23,9 C 48 % 1023,7 hPa 0,0 l/m 4,0 km/h (1 Bft) N 360 12,2 C 28,6 C 6,3 km/h (2 Bft)
21.07.2013 20:10 23,5 C 49 % 1023,7 hPa 0,0 l/m 2,7 km/h (1 Bft) O 90 12,2 C 28,3 C 2,6 km/h (1 Bft)
21.07.2013 20:15 23,2 C 50 % 1023,7 hPa 0,0 l/m 1,3 km/h (1 Bft) NO 45 12,2 C 28,2 C 1,6 km/h (1 Bft)
21.07.2013 20:20 22,9 C 53 % 1023,7 hPa 0,0 l/m 1,3 km/h (1 Bft) O-SO 112 12,8 C 27,8 C 0,0 km/h (0 Bft)
21.07.2013 20:25 22,7 C 53 % 1023,6 hPa 0,0 l/m 1,3 km/h (1 Bft) NO 45 12,6 C 27,5 C 1,6 km/h (1 Bft)
21.07.2013 20:30 22,5 C 54 % 1023,6 hPa 0,0 l/m 1,4 km/h (1 Bft) NO 45 12,7 C 26,9 C 2,1 km/h (1 Bft)
21.07.2013 20:35 22,4 C 54 % 1023,6 hPa 0,0 l/m 1,6 km/h (1 Bft) O-NO 67 12,6 C 26,5 C 3,4 km/h (1 Bft)
21.07.2013 20:40 22,1 C 55 % 1023,6 hPa 0,0 l/m 2,1 km/h (1 Bft) O-SO 112 12,6 C 25,6 C 3,1 km/h (1 Bft)
21.07.2013 20:45 21,8 C 56 % 1023,7 hPa 0,0 l/m 2,3 km/h (1 Bft) NO 45 12,6 C 25,0 C 2,3 km/h (1 Bft)
21.07.2013 20:50 21,5 C 56 % 1023,7 hPa 0,0 l/m 1,8 km/h (1 Bft) O 90 12,3 C 24,2 C 3,1 km/h (1 Bft)
21.07.2013 20:55 21,3 C 56 % 1023,7 hPa 0,0 l/m 1,8 km/h (1 Bft) NO 45 12,2 C 23,5 C 2,6 km/h (1 Bft)
21.07.2013 21:00 21,1 C 56 % 1023,7 hPa 0,0 l/m 2,4 km/h (1 Bft) NO 45 12,0 C 22,5 C 2,4 km/h (1 Bft)
21.07.2013 21:05 20,8 C 57 % 1023,7 hPa 0,0 l/m 2,6 km/h (1 Bft) O-NO 67 12,0 C 21,6 C 2,7 km/h (1 Bft)
21.07.2013 21:10 20,3 C 58 % 1023,7 hPa 0,0 l/m 2,3 km/h (1 Bft) O 90 11,8 C 20,7 C 2,6 km/h (1 Bft)
21.07.2013 21:15 20,2 C 59 % 1023,7 hPa 0,0 l/m 1,9 km/h (1 Bft) O-NO 67 11,9 C 20,1 C 2,6 km/h (1 Bft)
21.07.2013 21:20 19,9 C 60 % 1023,7 hPa 0,0 l/m 1,6 km/h (1 Bft) O-SO 112 11,9 C 19,5 C 0,0 km/h (0 Bft)
21.07.2013 21:25 19,7 C 60 % 1023,9 hPa 0,0 l/m 1,6 km/h (1 Bft) O-SO 112 11,7 C 19,2 C 0,0 km/h (0 Bft)
21.07.2013 21:30 19,1 C 62 % 1023,9 hPa 0,0 l/m 0,8 km/h (0 Bft) O 90 11,6 C 18,6 C 0,0 km/h (0 Bft)
21.07.2013 21:35 18,6 C 64 % 1023,9 hPa 0,0 l/m 0,2 km/h (0 Bft) O 90 11,7 C 18,3 C 0,0 km/h (0 Bft)
21.07.2013 21:40 18,5 C 65 % 1023,9 hPa 0,0 l/m 0,3 km/h (0 Bft) O 90 11,8 C 17,8 C 1,8 km/h (1 Bft)
21.07.2013 21:45 18,9 C 64 % 1024,1 hPa 0,0 l/m 0,8 km/h (0 Bft) O 90 11,9 C 17,7 C 3,2 km/h (1 Bft)
21.07.2013 21:50 17,9 C 66 % 1024,1 hPa 0,0 l/m 0,6 km/h (0 Bft) O 90 11,5 C 17,6 C 0,0 km/h (0 Bft)
21.07.2013 21:55 17,4 C 67 % 1024,1 hPa 0,0 l/m 0,3 km/h (0 Bft) O 90 11,2 C 17,3 C 0,0 km/h (0 Bft)
21.07.2013 22:00 17,4 C 69 % 1024,1 hPa 0,0 l/m 0,0 km/h (0 Bft) O-NO 67 11,7 C 16,9 C 0,0 km/h (0 Bft)
21.07.2013 22:05 17,4 C 69 % 1024,1 hPa 0,0 l/m 0,0 km/h (0 Bft) O 90 11,7 C 16,6 C 0,0 km/h (0 Bft)
21.07.2013 22:10 16,8 C 69 % 1024,1 hPa 0,0 l/m 0,0 km/h (0 Bft) O-SO 112 11,1 C 16,4 C 0,0 km/h (0 Bft)
21.07.2013 22:15 16,7 C 70 % 1024,1 hPa 0,0 l/m 0,0 km/h (0 Bft) O-SO 112 11,2 C 16,2 C 0,0 km/h (0 Bft)
21.07.2013 22:20 16,2 C 70 % 1024,1 hPa 0,0 l/m 0,0 km/h (0 Bft) O-SO 112 10,7 C 15,9 C 0,0 km/h (0 Bft)
21.07.2013 22:25 16,1 C 71 % 1024,1 hPa 0,0 l/m 0,0 km/h (0 Bft) O-SO 112 10,8 C 15,7 C 0,0 km/h (0 Bft)
21.07.2013 22:30 15,9 C 72 % 1024,1 hPa 0,0 l/m 0,0 km/h (0 Bft) S 180 10,9 C 15,6 C 0,0 km/h (0 Bft)
21.07.2013 22:35 15,8 C 72 % 1024,1 hPa 0,0 l/m 0,0 km/h (0 Bft) O-SO 112 10,8 C 15,5 C 0,0 km/h (0 Bft)
21.07.2013 22:40 15,9 C 73 % 1024,1 hPa 0,0 l/m 0,0 km/h (0 Bft) O-SO 112 11,1 C 15,4 C 0,0 km/h (0 Bft)
21.07.2013 22:45 16,1 C 71 % 1024,2 hPa 0,0 l/m 0,0 km/h (0 Bft) O-SO 112 10,8 C 15,4 C 0,0 km/h (0 Bft)
21.07.2013 22:50 15,7 C 73 % 1024,2 hPa 0,0 l/m 0,0 km/h (0 Bft) SO 135 10,9 C 15,2 C 0,0 km/h (0 Bft)
21.07.2013 22:55 15,5 C 74 % 1024,2 hPa 0,0 l/m 0,0 km/h (0 Bft) S 180 10,9 C 15,0 C 0,0 km/h (0 Bft)
21.07.2013 23:00 15,4 C 74 % 1024,2 hPa 0,0 l/m 0,0 km/h (0 Bft) S 180 10,8 C 14,9 C 0,0 km/h (0 Bft)
21.07.2013 23:05 15,4 C 74 % 1024,1 hPa 0,0 l/m 0,0 km/h (0 Bft) S 180 10,8 C 14,8 C 0,0 km/h (0 Bft)
21.07.2013 23:10 15,1 C 74 % 1024,1 hPa 0,0 l/m 0,0 km/h (0 Bft) S-SO 157 10,5 C 14,6 C 0,0 km/h (0 Bft)
21.07.2013 23:15 15,2 C 75 % 1024,1 hPa 0,0 l/m 0,0 km/h (0 Bft) SO 135 10,8 C 14,5 C 0,0 km/h (0 Bft)
21.07.2013 23:20 15,1 C 75 % 1024,1 hPa 0,0 l/m 0,0 km/h (0 Bft) SO 135 10,7 C 14,3 C 0,0 km/h (0 Bft)
21.07.2013 23:25 15,0 C 75 % 1024,1 hPa 0,0 l/m 0,0 km/h (0 Bft) SO 135 10,6 C 14,2 C 0,0 km/h (0 Bft)
21.07.2013 23:30 15,0 C 76 % 1024,1 hPa 0,0 l/m 0,0 km/h (0 Bft) SO 135 10,8 C 14,0 C 0,0 km/h (0 Bft)
21.07.2013 23:35 15,1 C 76 % 1024,1 hPa 0,0 l/m 0,2 km/h (0 Bft) SO 135 10,9 C 13,9 C 2,3 km/h (1 Bft)
21.07.2013 23:40 15,3 C 77 % 1024,1 hPa 0,0 l/m 1,0 km/h (0 Bft) O 90 11,3 C 14,2 C 2,6 km/h (1 Bft)
21.07.2013 23:45 15,7 C 77 % 1023,9 hPa 0,0 l/m 2,4 km/h (1 Bft) O 90 11,7 C 14,4 C 5,1 km/h (1 Bft)
21.07.2013 23:50 15,8 C 76 % 1023,9 hPa 0,0 l/m 4,2 km/h (1 Bft) O-SO 112 11,6 C 14,9 C 3,7 km/h (1 Bft)
21.07.2013 23:55 15,8 C 76 % 1023,9 hPa 0,0 l/m 3,9 km/h (1 Bft) O 90 11,6 C 15,0 C 2,6 km/h (1 Bft)
_ Min-Zeit 06:05 16:15 05:00 - 23:30 - - 06:05 05:40 23:30
Minimum _ 11,1 C 35 % 1022,9 hPa - 0,0 km/h (0 Bft) - - 9,5 C 11,1 C 0,0 km/h (0 Bft)
_ Max-Zeit 16:15 06:00 13:40 23:55 16:45 - - 07:50 17:45 12:20
Maximum _ 28,7 C 91 % 1024,7 hPa 0,0 l/m 6,3 km/h
W (2 Bft)
- - 15,7 C 32,6 C 17,1 km/h
N-NW (3 Bft)
Durchschnitt _ 20,9 C 61 % 1023,8 hPa #0,0 l/m 2,1 km/h (1 Bft) N-NW - 12,2 C 22,0 C 2,7 km/h (1 Bft)